{"data":{"norad_id":59769,"intl_designator":"2024-091S","name":"STARLINK-31830","alt_names":[],"object_type":"PAYLOAD","status":"ACTIVE","operator":null,"country":"US","launch_date":"2024-05-14","launch_site_code":"AFWTR","launch_vehicle":null,"mission":null,"orbit_class":"UNKNOWN","rcs_meters":null,"size_class":null,"mass_kg":null,"dimensions":null,"purposes":["comms"],"wikipedia_slug":null,"has_3d_model":false,"image_url":null,"decayed_at":null,"tle_current":{"epoch":"2026-09-21T02:53:39.357888Z","epoch_age_seconds":117743,"freshness":"FRESH","line1":"1 59769U 24091S   26264.12059442  .00000029  00000+0  11996-4 0  9999","line2":"2 59769  53.1612 198.5700 0001518  92.9579 267.1598 15.34389639132939","mean_motion":15.34389639,"eccentricity":0.0001518,"inclination_deg":53.1612,"raan_deg":198.57,"arg_perigee_deg":92.9579,"mean_anomaly_deg":267.1598,"bstar":1.1996e-5,"rev_number":13293,"period_min":93.848391790398,"perigee_km":461.69559123269,"apogee_km":463.77247967906,"semimajor_km":6840.8710354559,"source":"CELESTRAK","updated_at":"2026-09-22T09:00:49.070176Z"}}}